sat.trackr.live / text

‹ back to catalog

UNKNOWN

NORAD 87730

UNKNOWN UNKNOWN UNKNOWN

§ Identity

Operator
Country
Launch date
Launch site
Launch vehicle
Mass (kg)
RCS (m²)

External: N2YO · Heavens-Above

§ Orbital elements

Epoch: 2026-05-23T15:04:48.611424Z

Period
104.76 min
Inclination
82.9428°
Eccentricity
0.0028409
Mean motion
13.74532764 rev/d
Perigee alt
962.4 km
Apogee alt
1,004.3 km
Semi-major
7,361.5 km
B*
6.9261e-5
RAAN
114.3387°
Arg perigee
273.1338°
Mean anomaly
86.6567°
Rev number
60,757

§ Raw data

UNKNOWN1 87730U          26143.62834041  .00000081  00000+0  69261-4 0  99952 87730  82.9428 114.3387 0028409 273.1338  86.6567 13.74532764607572

JSON: /api/v1/satellites/87730 · /tle

For live sub-satellite position, see the globe view (requires WebGL).

§ Visibility from observer

Set your observer location to see the next 7 days of passes ≥ 10°. The values pass through the URL so the page stays shareable.

No JS? Fill the form by hand. The geolocation button needs JavaScript.